STARLINK-3046 (49169 NORAD) Tracking and Keplerian Element Data

This shows tracking and keplerian element data for the satellite.

Feedback or suggestion? Click here.




ElementValue
Catalog49169
NameSTARLINK-3046
Epoch Orbit618
Epoch Day288.16667824
Epoch Year2021
RAAN39.5565
Inclination70.0024
Eccentricity0.0003768
Argument of Perigee281.8104
Mean Anonmoly187.1577
Mean Motion15.69665083
Decay Rate0.00097027
L11 49169U 21082AR 21288.16667824 .00097027 00000-0 80794-3 0 9999
L22 49169 70.0024 39.5565 0003768 281.8104 187.1577 15.69665083 6185

Live tracking and technical data element details for STARLINK-3046 (NORAD 49169). STARLINK-3046 can be tracked NOW for your location showing map with azimuth and elevation plus other details from your city location.

Track the satellite on the map from your city or location and see movement details for azimuth, elevation, latitude, longitude, range, height, and movement on the map or in text.







IsCatalogInMostPopularTable: catalog: 49169, numindb: 5
Update: records affected: 1



GetName: 49169 STARLINK-3046

Hit Count: updated at: Sun, 17 Oct 2021 08:38:12 GMT